• In Deutschland
  • Länderverzeichnis
  • Für 7 Tage
  • Wassertemperatur
  • Satellitenkarten
  • Wetterkarte
  • Widgets
  • user-avatar
    Anmelden

    Stündliche Wetter Manama

    Heute, 17 August, Donnerstag

    Zeit Temperatur Niederschläge Wind Luftdruck Luftfeuchtigkeit
    00:00 +38°C° 0 mm 4 m/S 750 mmHg 60%
    01:00 +38°C° 0 mm 4 m/S 750 mmHg 61%
    02:00 +37°C° 0 mm 4 m/S 750 mmHg 63%
    03:00 +37°C° 0 mm 5 m/S 750 mmHg 67%
    04:00 +37°C° 0 mm 4 m/S 750 mmHg 66%
    05:00 +37°C° 0 mm 4 m/S 751 mmHg 66%
    06:00 +37°C° 0 mm 4 m/S 751 mmHg 65%
    07:00 +38°C° 0 mm 3 m/S 751 mmHg 58%
    08:00 +39°C° 0 mm 2 m/S 751 mmHg 52%
    09:00 +41°C° 0 mm 2 m/S 751 mmHg 45%
    10:00 +42°C° 0 mm 2 m/S 751 mmHg 40%
    11:00 +43°C° 0 mm 2 m/S 751 mmHg 36%
    12:00 +45°C° 0 mm 3 m/S 751 mmHg 32%
    13:00 +45°C° 0 mm 3 m/S 750 mmHg 33%
    14:00 +45°C° 0 mm 4 m/S 750 mmHg 35%
    15:00 +46°C° 0 mm 5 m/S 749 mmHg 37%
    16:00 +43°C° 0 mm 5 m/S 749 mmHg 41%
    17:00 +42°C° 0 mm 5 m/S 749 mmHg 46%
    18:00 +41°C° 0 mm 4 m/S 749 mmHg 50%
    19:00 +41°C° 0 mm 4 m/S 749 mmHg 52%
    20:00 +39°C° 0 mm 3 m/S 749 mmHg 53%
    21:00 +39°C° 0 mm 3 m/S 750 mmHg 54%
    22:00 +38°C° 0 mm 3 m/S 750 mmHg 57%
    23:00 +38°C° 0 mm 4 m/S 749 mmHg 61%

    Morgen, 18 August, Freitag

    Zeit Temperatur Niederschläge Wind Luftdruck Luftfeuchtigkeit
    00:00 +38°C° 0 mm 4 m/S 749 mmHg 64%
    01:00 +37°C° 0 mm 4 m/S 749 mmHg 64%
    02:00 +37°C° 0 mm 3 m/S 749 mmHg 63%
    03:00 +37°C° 0 mm 3 m/S 749 mmHg 63%
    04:00 +37°C° 0 mm 2 m/S 749 mmHg 61%
    05:00 +36°C° 0 mm 1 m/S 750 mmHg 60%
    06:00 +36°C° 0 mm 1 m/S 750 mmHg 58%
    07:00 +37°C° 0 mm 1 m/S 750 mmHg 52%
    08:00 +39°C° 0 mm 1 m/S 751 mmHg 47%
    09:00 +40°C° 0 mm 2 m/S 751 mmHg 41%
    10:00 +41°C° 0 mm 2 m/S 751 mmHg 38%
    11:00 +42°C° 0 mm 2 m/S 751 mmHg 35%
    12:00 +43°C° 0 mm 2 m/S 750 mmHg 32%
    13:00 +44°C° 0 mm 3 m/S 750 mmHg 31%
    14:00 +45°C° 0 mm 4 m/S 750 mmHg 30%
    15:00 +46°C° 0 mm 5 m/S 749 mmHg 29%
    16:00 +45°C° 0 mm 5 m/S 749 mmHg 36%
    17:00 +42°C° 0 mm 5 m/S 749 mmHg 42%
    18:00 +41°C° 0 mm 4 m/S 749 mmHg 48%
    19:00 +40°C° 0 mm 4 m/S 749 mmHg 49%
    20:00 +39°C° 0 mm 3 m/S 749 mmHg 50%
    21:00 +38°C° 0 mm 2 m/S 750 mmHg 51%
    22:00 +38°C° 0 mm 2 m/S 749 mmHg 51%
    23:00 +38°C° 0 mm 2 m/S 749 mmHg 51%

    übermorgen, 19 August, Samstag

    Zeit Temperatur Niederschläge Wind Luftdruck Luftfeuchtigkeit
    00:00 +36°C° 0 mm 1 m/S 749 mmHg 52%
    01:00 +36°C° 0 mm 1 m/S 749 mmHg 53%
    02:00 +35°C° 0 mm 1 m/S 749 mmHg 54%
    03:00 +35°C° 0 mm 1 m/S 749 mmHg 55%
    04:00 +35°C° 0 mm 1 m/S 749 mmHg 53%
    05:00 +35°C° 0 mm 1 m/S 749 mmHg 52%
    06:00 +37°C° 0 mm 2 m/S 749 mmHg 50%
    07:00 +38°C° 0 mm 2 m/S 750 mmHg 46%
    08:00 +39°C° 0 mm 3 m/S 750 mmHg 42%
    09:00 +42°C° 0 mm 3 m/S 750 mmHg 37%
    10:00 +43°C° 0 mm 3 m/S 750 mmHg 34%
    11:00 +43°C° 0 mm 2 m/S 750 mmHg 31%
    12:00 +46°C° 0 mm 2 m/S 750 mmHg 27%
    13:00 +46°C° 0 mm 3 m/S 750 mmHg 28%
    14:00 +47°C° 0 mm 4 m/S 749 mmHg 28%
    15:00 +47°C° 0 mm 4 m/S 749 mmHg 28%
    16:00 +44°C° 0 mm 4 m/S 749 mmHg 32%
    17:00 +43°C° 0 mm 4 m/S 749 mmHg 35%
    18:00 +42°C° 0 mm 4 m/S 749 mmHg 39%
    19:00 +42°C° 0 mm 3 m/S 749 mmHg 39%
    20:00 +40°C° 0 mm 2 m/S 749 mmHg 40%
    21:00 +40°C° 0 mm 2 m/S 749 mmHg 40%
    22:00 +39°C° 0 mm 2 m/S 749 mmHg 40%
    23:00 +39°C° 0 mm 3 m/S 749 mmHg 41%

    20 August, Sonntag

    Zeit Temperatur Niederschläge Wind Luftdruck Luftfeuchtigkeit
    00:00 +40°C° 0 mm 4 m/S 749 mmHg 41%
    01:00 +38°C° 0 mm 3 m/S 749 mmHg 45%
    02:00 +38°C° 0 mm 3 m/S 749 mmHg 49%
    03:00 +37°C° 0 mm 2 m/S 749 mmHg 53%
    04:00 +37°C° 0 mm 2 m/S 749 mmHg 51%
    05:00 +37°C° 0 mm 2 m/S 749 mmHg 50%
    06:00 +37°C° 0 mm 2 m/S 750 mmHg 48%
    07:00 +39°C° 0 mm 2 m/S 750 mmHg 44%
    08:00 +40°C° 0 mm 1 m/S 750 mmHg 40%
    09:00 +41°C° 0 mm 1 m/S 750 mmHg 36%
    10:00 +42°C° 0 mm 1 m/S 750 mmHg 34%
    11:00 +43°C° 0 mm 2 m/S 750 mmHg 33%
    12:00 +43°C° 0 mm 2 m/S 750 mmHg 31%
    13:00 +45°C° 0 mm 3 m/S 749 mmHg 31%
    14:00 +45°C° 0 mm 3 m/S 749 mmHg 31%
    15:00 +45°C° 0 mm 4 m/S 748 mmHg 31%
    16:00 +44°C° 0 mm 4 m/S 748 mmHg 34%
    17:00 +43°C° 0 mm 4 m/S 748 mmHg 37%
    18:00 +43°C° 0 mm 4 m/S 748 mmHg 40%
    19:00 +42°C° 0 mm 4 m/S 749 mmHg 40%
    20:00 +42°C° 0 mm 4 m/S 749 mmHg 40%
    21:00 +42°C° 0 mm 4 m/S 749 mmHg 40%
    22:00 +41°C° 0 mm 4 m/S 749 mmHg 40%
    23:00 +41°C° 0 mm 4 m/S 749 mmHg 39%

    21 August, Montag

    Zeit Temperatur Niederschläge Wind Luftdruck Luftfeuchtigkeit
    00:00 +40°C° 0 mm 4 m/S 749 mmHg 39%
    01:00 +40°C° 0 mm 4 m/S 749 mmHg 42%
    02:00 +38°C° 0 mm 3 m/S 748 mmHg 44%
    03:00 +38°C° 0 mm 3 m/S 748 mmHg 46%
    04:00 +38°C° 0 mm 3 m/S 748 mmHg 48%
    05:00 +38°C° 0 mm 3 m/S 749 mmHg 49%
    06:00 +38°C° 0 mm 3 m/S 749 mmHg 51%
    07:00 +39°C° 0 mm 3 m/S 749 mmHg 46%
    08:00 +40°C° 0 mm 3 m/S 750 mmHg 42%
    09:00 +42°C° 0 mm 3 m/S 750 mmHg 37%
    10:00 +42°C° 0 mm 2 m/S 749 mmHg 34%
    11:00 +43°C° 0 mm 2 m/S 749 mmHg 30%
    12:00 +45°C° 0 mm 2 m/S 749 mmHg 27%
    13:00 +46°C° 0 mm 3 m/S 748 mmHg 26%
    14:00 +47°C° 0 mm 4 m/S 748 mmHg 24%
    15:00 +47°C° 0 mm 4 m/S 747 mmHg 23%
    16:00 +46°C° 0 mm 5 m/S 747 mmHg 25%
    17:00 +45°C° 0 mm 5 m/S 747 mmHg 28%
    18:00 +43°C° 0 mm 5 m/S 747 mmHg 30%
    19:00 +43°C° 0 mm 4 m/S 748 mmHg 31%
    20:00 +42°C° 0 mm 4 m/S 748 mmHg 32%
    21:00 +42°C° 0 mm 4 m/S 748 mmHg 33%
    22:00 +41°C° 0 mm 4 m/S 748 mmHg 33%
    23:00 +41°C° 0 mm 4 m/S 748 mmHg 34%

    22 August, Dienstag

    Zeit Temperatur Niederschläge Wind Luftdruck Luftfeuchtigkeit
    00:00 +39°C° 0 mm 3 m/S 747 mmHg 34%
    01:00 +39°C° 0 mm 3 m/S 747 mmHg 35%
    02:00 +39°C° 0 mm 3 m/S 747 mmHg 36%
    03:00 +38°C° 0 mm 3 m/S 747 mmHg 38%
    04:00 +38°C° 0 mm 3 m/S 747 mmHg 37%
    05:00 +38°C° 0 mm 3 m/S 748 mmHg 37%
    06:00 +38°C° 0 mm 3 m/S 748 mmHg 37%
    07:00 +39°C° 0 mm 3 m/S 748 mmHg 34%
    08:00 +42°C° 0 mm 3 m/S 749 mmHg 31%
    09:00 +43°C° 0 mm 3 m/S 749 mmHg 28%
    10:00 +43°C° 0 mm 2 m/S 749 mmHg 26%
    11:00 +45°C° 0 mm 2 m/S 748 mmHg 24%
    12:00 +44°C° 0 mm 1 m/S 748 mmHg 22%
    13:00 +46°C° 0 mm 2 m/S 748 mmHg 22%
    14:00 +47°C° 0 mm 4 m/S 747 mmHg 22%
    15:00 +47°C° 0 mm 5 m/S 747 mmHg 21%
    16:00 +46°C° 0 mm 5 m/S 747 mmHg 24%
    17:00 +45°C° 0 mm 5 m/S 747 mmHg 28%
    18:00 +43°C° 0 mm 5 m/S 747 mmHg 31%
    19:00 +42°C° 0 mm 5 m/S 747 mmHg 32%
    20:00 +42°C° 0 mm 5 m/S 748 mmHg 32%
    21:00 +41°C° 0 mm 5 m/S 748 mmHg 33%
    22:00 +41°C° 0 mm 5 m/S 748 mmHg 34%
    23:00 +40°C° 0 mm 4 m/S 748 mmHg 34%
    Mehr zeigen